Location: La Junie
(44.7428°N, 2.1773°E)
Time: 20:44:48
(UTC+00:00)

Cosmos 1606 Rocket - Pass Details

Date: 15 May 2026
Orbit: 595 x 625 km, 82.5° (Epoch: 8 June)

Event Time Altitude Azimuth Distance (km) Brightness Sun altitude
Exits shadow 21:17:13 37° 148° (SSE) 953 4.0 -17.6°
Maximum altitude 21:18:36 53° 94° (E) 747 3.7 -17.7°
Drops below altitude 10° 21:22:48 10° 18° (NNE) 1,955 6.6 -18.2°
Sets 21:25:03 0° 14° (NNE) 2,859 7.6 -18.4°
